| time (UTC) | temp C | wind direction | speed KPH | gust KPH | rain 1hr cm | rain 24hr cm | rain mn cm | humidity % | barometer mb |
| 20260506195514 | 15 | 28 | 6.4 | 0.0 | 0.00 | 0.00 | 0.00 | 85 | 1012.9 |
| 20260506195053 | 16 | 338 | 8.0 | 0.0 | 0.00 | 0.00 | 0.00 | 85 | 1013.0 |
| 20260506194559 | 16 | 306 | 6.4 | 0.0 | 0.00 | 0.00 | 0.00 | 84 | 1012.9 |
| 20260506194035 | 16 | 315 | 6.4 | 0.0 | 0.00 | 0.00 | 0.00 | 84 | 1012.9 |
| 20260506193507 | 16 | 307 | 6.4 | 0.0 | 0.00 | 0.00 | 0.00 | 84 | 1012.8 |
| 20260506193103 | 16 | 313 | 6.4 | 0.0 | 0.00 | 0.00 | 0.00 | 84 | 1012.9 |
| 20260506192538 | 16 | 330 | 8.0 | 0.0 | 0.00 | 0.00 | 0.00 | 84 | 1012.9 |
| 20260506192015 | 16 | 340 | 8.0 | 0.0 | 0.00 | 0.00 | 0.00 | 83 | 1012.9 |
| 20260506191519 | 17 | 348 | 6.4 | 0.0 | 0.00 | 0.00 | 0.00 | 83 | 1013.0 |
| 20260506191055 | 17 | 330 | 6.4 | 0.0 | 0.00 | 0.00 | 0.00 | 83 | 1013.0 |
| 20260506190531 | 17 | 322 | 4.8 | 0.0 | 0.00 | 0.00 | 0.00 | 83 | 1012.8 |
| 20260506190036 | 17 | 324 | 6.4 | 0.0 | 0.00 | 0.00 | 0.00 | 84 | 1012.7 |
| 20260506185506 | 17 | 338 | 6.4 | 0.0 | 0.00 | 0.00 | 0.00 | 85 | 1012.6 |
| 20260506185046 | 17 | 301 | 4.8 | 0.0 | 0.00 | 0.00 | 0.00 | 85 | 1012.6 |
| 20260506184534 | 17 | 286 | 6.4 | 0.0 | 0.00 | 0.00 | 0.00 | 85 | 1012.6 |
| 20260506184007 | 18 | 346 | 6.4 | 0.0 | 0.00 | 0.00 | 0.00 | 84 | 1012.5 |
| 20260506183546 | 18 | 344 | 6.4 | 0.0 | 0.00 | 0.00 | 0.00 | 84 | 1012.6 |
| 20260506183035 | 18 | 355 | 8.0 | 0.0 | 0.00 | 0.00 | 0.00 | 83 | 1012.6 |
| 20260506182507 | 18 | 338 | 8.0 | 0.0 | 0.00 | 0.00 | 0.00 | 81 | 1012.6 |
| 20260506182045 | 19 | 323 | 6.4 | 0.0 | 0.00 | 0.00 | 0.00 | 81 | 1012.6 |
| 20260506181536 | 20 | 342 | 4.8 | 0.0 | 0.00 | 0.00 | 0.00 | 79 | 1012.4 |
| 20260506181007 | 20 | 329 | 4.8 | 0.0 | 0.00 | 0.00 | 0.00 | 79 | 1012.4 |
| 20260506180545 | 20 | 355 | 3.2 | 0.0 | 0.00 | 0.00 | 0.00 | 79 | 1012.3 |
| 20260506180047 | 20 | 355 | 3.2 | 0.0 | 0.00 | 0.00 | 0.00 | 80 | 1012.3 |
| 20260506175521 | 20 | 338 | 3.2 | 0.0 | 0.00 | 0.00 | 0.00 | 79 | 1012.3 |
| 20260506175108 | 21 | 337 | 3.2 | 0.0 | 0.00 | 0.00 | 0.00 | 78 | 1012.2 |
| 20260506174556 | 21 | 321 | 3.2 | 0.0 | 0.00 | 0.00 | 0.00 | 79 | 1012.1 |
| 20260506174024 | 20 | 24 | 3.2 | 0.0 | 0.00 | 0.00 | 0.00 | 80 | 1012.1 |
| 20260506173602 | 20 | 54 | 3.2 | 0.0 | 0.00 | 0.00 | 0.00 | 80 | 1012.0 |
| 20260506173115 | 20 | 73 | 3.2 | 0.0 | 0.00 | 0.00 | 0.00 | 81 | 1011.9 |
| 20260506172523 | 19 | 66 | 3.2 | 0.0 | 0.00 | 0.00 | 0.00 | 82 | 1011.9 |
| 20260506172105 | 19 | 80 | 3.2 | 0.0 | 0.00 | 0.00 | 0.00 | 82 | 1011.9 |
| 20260506171606 | 19 | 62 | 3.2 | 0.0 | 0.00 | 0.00 | 0.00 | 82 | 1011.8 |
| 20260506171039 | 18 | 136 | 4.8 | 0.0 | 0.00 | 0.00 | 0.00 | 81 | 1011.9 |
| 20260506170517 | 18 | 70 | 4.8 | 0.0 | 0.00 | 0.00 | 0.00 | 82 | 1011.9 |
| 20260506170001 | 18 | 126 | 4.8 | 0.0 | 0.00 | 0.00 | 0.00 | 84 | 1011.9 |
| 20260506165539 | 18 | 96 | 4.8 | 0.0 | 0.00 | 0.00 | 0.00 | 86 | 1011.8 |
| 20260506165018 | 18 | 86 | 4.8 | 0.0 | 0.00 | 0.00 | 0.00 | 87 | 1011.9 |
| 20260506164521 | 17 | 77 | 3.2 | 0.0 | 0.00 | 0.00 | 0.00 | 89 | 1011.9 |
| 20260506164055 | 17 | 71 | 3.2 | 0.0 | 0.00 | 0.00 | 0.00 | 89 | 1012.0 |
| 20260506163530 | 17 | 97 | 4.8 | 0.0 | 0.00 | 0.00 | 0.00 | 90 | 1012.3 |
| 20260506163034 | 16 | 70 | 4.8 | 0.0 | 0.00 | 0.00 | 0.00 | 91 | 1012.4 |
| 20260506162510 | 16 | 72 | 4.8 | 0.0 | 0.00 | 0.00 | 0.00 | 92 | 1012.5 |
| 20260506162043 | 15 | 144 | 3.2 | 0.0 | 0.00 | 0.00 | 0.00 | 92 | 1012.5 |
| 20260506161533 | 15 | 71 | 3.2 | 0.0 | 0.00 | 0.00 | 0.00 | 92 | 1012.0 |
| 20260506161009 | 15 | 342 | 3.2 | 0.0 | 0.00 | 0.00 | 0.00 | 92 | 1012.4 |
| 20260506160542 | 15 | 318 | 4.8 | 0.0 | 0.00 | 0.00 | 0.00 | 92 | 1013.0 |
| 20260506160046 | 15 | 338 | 6.4 | 0.0 | 0.00 | 0.00 | 0.00 | 92 | 1013.3 |
| 20260506155518 | 15 | 327 | 6.4 | 0.0 | 0.00 | 0.00 | 0.00 | 92 | 1013.3 |
| 20260506155058 | 15 | 327 | 6.4 | 0.0 | 0.00 | 0.00 | 0.00 | 92 | 1013.4 |
| 20260506154545 | 15 | 344 | 9.7 | 0.0 | 0.00 | 0.00 | 0.00 | 92 | 1013.6 |
| 20260506154022 | 15 | 340 | 8.0 | 0.0 | 0.00 | 0.00 | 0.00 | 92 | 1013.9 |
| 20260506153559 | 15 | 348 | 6.4 | 0.0 | 0.00 | 0.00 | 0.00 | 92 | 1013.8 |
| 20260506153105 | 16 | 345 | 8.0 | 0.0 | 0.00 | 0.00 | 0.00 | 92 | 1013.4 |
| 20260506152538 | 16 | 5 | 8.0 | 0.0 | 0.00 | 0.00 | 0.00 | 92 | 1013.1 |
| 20260506152011 | 16 | 312 | 8.0 | 0.0 | 0.00 | 0.00 | 0.00 | 91 | 1013.2 |
| 20260506151603 | 16 | 348 | 8.0 | 0.0 | 0.00 | 0.00 | 0.00 | 92 | 1013.3 |
| 20260506151037 | 16 | 338 | 6.4 | 0.0 | 0.00 | 0.00 | 0.00 | 91 | 1012.8 |
| 20260506150512 | 16 | 340 | 6.4 | 0.0 | 0.00 | 0.00 | 0.00 | 91 | 1012.6 |
| 20260506150109 | 17 | 328 | 6.4 | 0.0 | 0.00 | 0.00 | 0.00 | 91 | 1012.3 |
| 20260506145539 | 17 | 360 | 6.4 | 0.0 | 0.00 | 0.00 | 0.00 | 91 | 1011.7 |
| 20260506145014 | 17 | 333 | 4.8 | 0.0 | 0.00 | 0.00 | 0.00 | 91 | 1011.8 |
| 20260506144529 | 17 | 340 | 4.8 | 0.0 | 0.00 | 0.00 | 0.00 | 91 | 1011.5 |
| 20260506144050 | 17 | 343 | 6.4 | 0.0 | 0.00 | 0.00 | 0.00 | 91 | 1011.4 |
| 20260506143526 | 17 | 294 | 8.0 | 0.0 | 0.00 | 0.00 | 0.00 | 91 | 1011.6 |
| 20260506143030 | 17 | 349 | 8.0 | 0.0 | 0.00 | 0.00 | 0.00 | 91 | 1011.5 |
| 20260506142505 | 18 | 335 | 6.4 | 0.0 | 0.00 | 0.00 | 0.00 | 91 | 1011.5 |
| 20260506142044 | 18 | 350 | 6.4 | 0.0 | 0.00 | 0.00 | 0.00 | 91 | 1011.2 |
| 20260506141551 | 18 | 350 | 4.8 | 0.0 | 0.00 | 0.00 | 0.00 | 91 | 1010.8 |
| 20260506141024 | 18 | 336 | 4.8 | 0.0 | 0.00 | 0.00 | 0.00 | 91 | 1010.8 |
| 20260506140605 | 19 | 11 | 4.8 | 0.0 | 0.00 | 0.00 | 0.00 | 91 | 1010.6 |
| 20260506140004 | 19 | 342 | 4.8 | 0.0 | 0.00 | 0.00 | 0.00 | 91 | 1010.3 |
| 20260506135539 | 19 | 335 | 4.8 | 0.0 | 0.00 | 0.00 | 0.00 | 90 | 1010.8 |
| 20260506135016 | 20 | 348 | 4.8 | 0.0 | 0.00 | 0.00 | 0.00 | 90 | 1010.6 |
| 20260506134516 | 21 | 336 | 3.2 | 0.0 | 0.00 | 0.00 | 0.00 | 89 | 1010.3 |
| 20260506134054 | 22 | 9 | 3.2 | 0.0 | 0.00 | 0.00 | 0.00 | 91 | 1010.3 |
| 20260506133523 | 23 | 155 | 1.6 | 0.0 | 0.00 | 0.00 | 0.00 | 91 | 1009.7 |
| 20260506133029 | 23 | 155 | 0.0 | 0.0 | 0.00 | 0.00 | 0.00 | 91 | 1009.8 |
| 20260506132605 | 23 | 155 | 0.0 | 0.0 | 0.00 | 0.00 | 0.00 | 91 | 1009.8 |
| 20260506132041 | 23 | 155 | 0.0 | 0.0 | 0.00 | 0.00 | 0.00 | 91 | 1009.8 |
| 20260506131548 | 23 | 155 | 0.0 | 0.0 | 0.00 | 0.00 | 0.00 | 91 | 1009.8 |
| 20260506131017 | 22 | 155 | 0.0 | 0.0 | 0.00 | 0.00 | 0.00 | 91 | 1009.7 |
| 20260506130551 | 22 | 155 | 0.0 | 0.0 | 0.00 | 0.00 | 0.00 | 91 | 1009.5 |
| 20260506130137 | 22 | 155 | 0.0 | 0.0 | 0.00 | 0.00 | 0.00 | 91 | 1009.3 |
| 20260506125528 | 22 | 155 | 0.0 | 0.0 | 0.00 | 0.00 | 0.00 | 91 | 1009.2 |
| 20260506125001 | 22 | 155 | 0.0 | 0.0 | 0.00 | 0.00 | 0.00 | 91 | 1009.3 |
| 20260506124504 | 22 | 155 | 0.0 | 0.0 | 0.00 | 0.00 | 0.00 | 91 | 1009.2 |
| 20260506124047 | 22 | 155 | 0.0 | 0.0 | 0.00 | 0.00 | 0.00 | 91 | 1009.1 |
| 20260506123519 | 22 | 155 | 0.0 | 0.0 | 0.00 | 0.00 | 0.00 | 91 | 1009.1 |
| 20260506123035 | 22 | 155 | 0.0 | 0.0 | 0.00 | 0.00 | 0.00 | 91 | 1009.1 |
| 20260506122603 | 22 | 155 | 0.0 | 0.0 | 0.00 | 0.00 | 0.00 | 91 | 1009.1 |
| 20260506122034 | 22 | 155 | 0.0 | 0.0 | 0.00 | 0.00 | 0.00 | 92 | 1008.9 |
| 20260506121550 | 22 | 155 | 0.0 | 0.0 | 0.00 | 0.00 | 0.00 | 92 | 1008.9 |
| 20260506121013 | 22 | 155 | 0.0 | 0.0 | 0.00 | 0.00 | 0.00 | 92 | 1008.9 |
| 20260506120551 | 22 | 155 | 0.0 | 0.0 | 0.00 | 0.00 | 0.00 | 92 | 1008.9 |
| 20260506120052 | 22 | 155 | 0.0 | 0.0 | 0.00 | 0.00 | 0.00 | 92 | 1008.9 |
| 20260506115528 | 22 | 155 | 0.0 | 0.0 | 0.00 | 0.00 | 0.00 | 92 | 1008.9 |
| 20260506115102 | 22 | 155 | 0.0 | 0.0 | 0.00 | 0.00 | 0.00 | 92 | 1008.8 |
| 20260506114509 | 22 | 155 | 0.0 | 0.0 | 0.00 | 0.00 | 0.00 | 92 | 1008.8 |
| 20260506114040 | 22 | 155 | 0.0 | 0.0 | 0.00 | 0.00 | 0.00 | 92 | 1008.8 |
| 20260506113514 | 22 | 155 | 0.0 | 0.0 | 0.00 | 0.00 | 0.00 | 92 | 1008.8 |
| 20260506113020 | 22 | 155 | 0.0 | 0.0 | 0.00 | 0.00 | 0.00 | 92 | 1008.8 |
| 20260506112559 | 22 | 155 | 1.6 | 0.0 | 0.00 | 0.00 | 0.00 | 92 | 1008.8 |
| 20260506112028 | 22 | 155 | 1.6 | 0.0 | 0.00 | 0.00 | 0.00 | 91 | 1008.9 |
| 20260506111534 | 22 | 155 | 1.6 | 0.0 | 0.00 | 0.00 | 0.00 | 91 | 1008.8 |
| 20260506111015 | 23 | 155 | 1.6 | 0.0 | 0.00 | 0.00 | 0.00 | 91 | 1008.8 |
| 20260506110551 | 23 | 157 | 1.6 | 0.0 | 0.00 | 0.00 | 0.00 | 91 | 1008.8 |
| 20260506110056 | 23 | 156 | 1.6 | 0.0 | 0.00 | 0.00 | 0.00 | 92 | 1008.8 |
| 20260506105529 | 23 | 156 | 1.6 | 0.0 | 0.00 | 0.00 | 0.00 | 92 | 1008.8 |
| 20260506105105 | 23 | 157 | 1.6 | 0.0 | 0.00 | 0.00 | 0.00 | 92 | 1008.8 |
| 20260506104600 | 23 | 157 | 0.0 | 0.0 | 0.00 | 0.00 | 0.00 | 92 | 1008.8 |
| 20260506104025 | 23 | 157 | 0.0 | 0.0 | 0.00 | 0.00 | 0.00 | 92 | 1008.8 |
| 20260506103501 | 23 | 157 | 0.0 | 0.0 | 0.00 | 0.00 | 0.00 | 92 | 1008.7 |
| 20260506103007 | 23 | 157 | 0.0 | 0.0 | 0.00 | 0.00 | 0.00 | 92 | 1008.7 |
| 20260506102545 | 23 | 157 | 0.0 | 0.0 | 0.00 | 0.00 | 0.00 | 91 | 1008.6 |
| 20260506102019 | 23 | 157 | 1.6 | 0.0 | 0.00 | 0.00 | 0.00 | 91 | 1008.6 |
| 20260506101522 | 23 | 157 | 1.6 | 0.0 | 0.00 | 0.00 | 0.00 | 91 | 1008.5 |
| 20260506101059 | 23 | 157 | 1.6 | 0.0 | 0.00 | 0.00 | 0.00 | 91 | 1008.5 |
| 20260506100530 | 23 | 157 | 1.6 | 0.0 | 0.00 | 0.00 | 0.00 | 91 | 1008.3 |
| 20260506100031 | 23 | 157 | 1.6 | 0.0 | 0.00 | 0.00 | 0.00 | 91 | 1008.3 |
| 20260506095504 | 23 | 157 | 3.2 | 0.0 | 0.00 | 0.00 | 0.00 | 91 | 1008.3 |
| 20260506095043 | 23 | 157 | 3.2 | 0.0 | 0.00 | 0.00 | 0.00 | 91 | 1008.2 |
| 20260506094534 | 23 | 148 | 4.8 | 0.0 | 0.00 | 0.00 | 0.00 | 91 | 1008.2 |
| 20260506094010 | 23 | 148 | 4.8 | 0.0 | 0.00 | 0.00 | 0.00 | 90 | 1008.1 |
| 20260506093547 | 23 | 146 | 4.8 | 0.0 | 0.00 | 0.00 | 0.00 | 90 | 1008.0 |
| 20260506093036 | 23 | 148 | 3.2 | 0.0 | 0.00 | 0.00 | 0.00 | 90 | 1008.0 |
| 20260506092505 | 23 | 148 | 3.2 | 0.0 | 0.00 | 0.00 | 0.00 | 89 | 1008.0 |
| 20260506092048 | 23 | 148 | 4.8 | 0.0 | 0.00 | 0.00 | 0.00 | 89 | 1008.0 |
| 20260506091536 | 23 | 148 | 4.8 | 0.0 | 0.00 | 0.00 | 0.00 | 89 | 1007.9 |
| 20260506091014 | 23 | 155 | 3.2 | 0.0 | 0.00 | 0.00 | 0.00 | 89 | 1007.9 |
| 20260506090546 | 23 | 90 | 3.2 | 0.0 | 0.00 | 0.00 | 0.00 | 89 | 1007.9 |
| 20260506090039 | 23 | 90 | 1.6 | 0.0 | 0.00 | 0.00 | 0.00 | 89 | 1007.9 |
| 20260506085513 | 23 | 144 | 1.6 | 0.0 | 0.00 | 0.00 | 0.00 | 89 | 1007.9 |
| 20260506085053 | 23 | 144 | 3.2 | 0.0 | 0.00 | 0.00 | 0.00 | 89 | 1007.8 |
| 20260506084600 | 23 | 144 | 4.8 | 0.0 | 0.00 | 0.00 | 0.00 | 89 | 1007.7 |
| 20260506084027 | 23 | 142 | 4.8 | 0.0 | 0.00 | 0.00 | 0.00 | 89 | 1007.9 |
| 20260506083504 | 23 | 142 | 3.2 | 0.0 | 0.00 | 0.00 | 0.00 | 89 | 1007.9 |
| 20260506083058 | 23 | 142 | 3.2 | 0.0 | 0.00 | 0.00 | 0.00 | 89 | 1007.9 |
| 20260506082527 | 23 | 142 | 3.2 | 0.0 | 0.00 | 0.00 | 0.00 | 89 | 1007.8 |
| 20260506082006 | 23 | 142 | 4.8 | 0.0 | 0.00 | 0.00 | 0.00 | 89 | 1007.8 |
| 20260506081512 | 23 | 158 | 6.4 | 0.0 | 0.00 | 0.00 | 0.00 | 89 | 1007.8 |
| 20260506081046 | 23 | 144 | 6.4 | 0.0 | 0.00 | 0.00 | 0.00 | 89 | 1007.8 |
| 20260506080518 | 23 | 132 | 3.2 | 0.0 | 0.00 | 0.00 | 0.00 | 89 | 1007.8 |
| 20260506073032 | 23 | 118 | 4.8 | 0.0 | 0.00 | 0.00 | 0.00 | 89 | 1007.9 |
| 20260506072509 | 23 | 180 | 6.4 | 0.0 | 0.00 | 0.00 | 0.00 | 89 | 1007.9 |
| 20260506072047 | 23 | 158 | 8.0 | 0.0 | 0.00 | 0.00 | 0.00 | 89 | 1007.9 |
| 20260506071537 | 23 | 138 | 6.4 | 0.0 | 0.00 | 0.00 | 0.00 | 89 | 1008.0 |
| 20260506071014 | 23 | 142 | 6.4 | 0.0 | 0.00 | 0.00 | 0.00 | 89 | 1007.9 |
| 20260506070552 | 23 | 140 | 6.4 | 0.0 | 0.00 | 0.00 | 0.00 | 89 | 1007.8 |
| 20260506062032 | 24 | 142 | 8.0 | 0.0 | 0.00 | 0.00 | 0.00 | 88 | 1007.6 |
| 20260506061545 | 24 | 192 | 8.0 | 0.0 | 0.00 | 0.00 | 0.00 | 88 | 1007.7 |
| 20260506061017 | 24 | 167 | 8.0 | 0.0 | 0.00 | 0.00 | 0.00 | 89 | 1007.6 |
| 20260506060555 | 24 | 150 | 9.7 | 0.0 | 0.00 | 0.00 | 0.00 | 89 | 1007.7 |
| 20260506051036 | 24 | 136 | 6.4 | 0.0 | 0.00 | 0.00 | 0.00 | 88 | 1007.8 |
| 20260506050510 | 24 | 135 | 8.0 | 0.0 | 0.00 | 0.00 | 0.00 | 89 | 1007.8 |
| 20260506045022 | 24 | 138 | 8.0 | 0.0 | 0.00 | 0.00 | 0.00 | 88 | 1007.8 |
| 20260506044543 | 24 | 148 | 8.0 | 0.0 | 0.00 | 0.00 | 0.00 | 88 | 1007.8 |
| 20260506044106 | 24 | 158 | 9.7 | 0.0 | 0.00 | 0.00 | 0.00 | 88 | 1007.7 |
| 20260506043540 | 24 | 146 | 9.7 | 0.0 | 0.00 | 0.00 | 0.00 | 88 | 1007.7 |
| 20260506043043 | 24 | 119 | 8.0 | 0.0 | 0.00 | 0.00 | 0.00 | 88 | 1007.8 |
| 20260506042513 | 24 | 145 | 4.8 | 0.0 | 0.00 | 0.00 | 0.00 | 88 | 1007.8 |
| 20260506042052 | 24 | 145 | 4.8 | 0.0 | 0.00 | 0.00 | 0.00 | 88 | 1007.9 |
| 20260506041539 | 24 | 135 | 6.4 | 0.0 | 0.00 | 0.00 | 0.00 | 88 | 1007.8 |
| 20260506041018 | 24 | 148 | 4.8 | 0.0 | 0.00 | 0.00 | 0.00 | 87 | 1007.8 |
| 20260506040550 | 24 | 163 | 4.8 | 0.0 | 0.00 | 0.00 | 0.00 | 87 | 1007.7 |
| 20260506040050 | 25 | 178 | 6.4 | 0.0 | 0.00 | 0.00 | 0.00 | 87 | 1007.7 |
| 20260506035523 | 25 | 144 | 6.4 | 0.0 | 0.00 | 0.00 | 0.00 | 86 | 1007.5 |
| 20260506035105 | 25 | 142 | 6.4 | 0.0 | 0.00 | 0.00 | 0.00 | 86 | 1007.6 |
| 20260506034506 | 25 | 148 | 6.4 | 0.0 | 0.00 | 0.00 | 0.00 | 86 | 1007.5 |
| 20260506034041 | 25 | 144 | 6.4 | 0.0 | 0.00 | 0.00 | 0.00 | 85 | 1007.4 |
| 20260506033516 | 25 | 143 | 6.4 | 0.0 | 0.00 | 0.00 | 0.00 | 84 | 1007.3 |
| 20260506033025 | 25 | 135 | 6.4 | 0.0 | 0.00 | 0.00 | 0.00 | 84 | 1007.2 |
| 20260506032552 | 25 | 147 | 4.8 | 0.0 | 0.00 | 0.00 | 0.00 | 84 | 1007.2 |
| 20260506032028 | 25 | 151 | 4.8 | 0.0 | 0.00 | 0.00 | 0.00 | 83 | 1007.2 |
| 20260506031544 | 25 | 146 | 4.8 | 0.0 | 0.00 | 0.00 | 0.00 | 83 | 1007.1 |
| 20260506031007 | 25 | 146 | 3.2 | 0.0 | 0.00 | 0.00 | 0.00 | 83 | 1007.0 |
| 20260506030548 | 25 | 146 | 3.2 | 0.0 | 0.00 | 0.00 | 0.00 | 82 | 1007.0 |
| 20260506030051 | 25 | 146 | 4.8 | 0.0 | 0.00 | 0.00 | 0.00 | 82 | 1006.8 |
| 20260506025521 | 25 | 146 | 4.8 | 0.0 | 0.00 | 0.00 | 0.00 | 82 | 1006.8 |
| 20260506025057 | 25 | 146 | 4.8 | 0.0 | 0.00 | 0.00 | 0.00 | 82 | 1006.8 |
| 20260506024603 | 25 | 146 | 4.8 | 0.0 | 0.00 | 0.00 | 0.00 | 82 | 1006.7 |
| 20260506024035 | 25 | 138 | 4.8 | 0.0 | 0.00 | 0.00 | 0.00 | 82 | 1006.5 |
| 20260506023508 | 25 | 153 | 4.8 | 0.0 | 0.00 | 0.00 | 0.00 | 82 | 1006.4 |
| 20260506023013 | 25 | 153 | 4.8 | 0.0 | 0.00 | 0.00 | 0.00 | 82 | 1006.4 |
| 20260506022548 | 25 | 161 | 4.8 | 0.0 | 0.00 | 0.00 | 0.00 | 81 | 1006.3 |
| 20260506022021 | 25 | 146 | 4.8 | 0.0 | 0.00 | 0.00 | 0.00 | 82 | 1006.2 |
| 20260506021524 | 25 | 146 | 3.2 | 0.0 | 0.00 | 0.00 | 0.00 | 82 | 1006.1 |
| 20260506021103 | 25 | 146 | 3.2 | 0.0 | 0.00 | 0.00 | 0.00 | 81 | 1006.1 |
| 20260506020536 | 25 | 146 | 1.6 | 0.0 | 0.00 | 0.00 | 0.00 | 81 | 1006.0 |
| 20260506020037 | 26 | 146 | 1.6 | 0.0 | 0.00 | 0.00 | 0.00 | 80 | 1006.0 |
| 20260506015507 | 26 | 146 | 1.6 | 0.0 | 0.00 | 0.00 | 0.00 | 80 | 1006.0 |
| 20260506015050 | 26 | 146 | 1.6 | 0.0 | 0.00 | 0.00 | 0.00 | 79 | 1006.0 |
| 20260506014548 | 26 | 146 | 3.2 | 0.0 | 0.00 | 0.00 | 0.00 | 79 | 1005.9 |
| 20260506014020 | 26 | 146 | 4.8 | 0.0 | 0.00 | 0.00 | 0.00 | 79 | 1005.8 |
| 20260506013556 | 26 | 148 | 3.2 | 0.0 | 0.00 | 0.00 | 0.00 | 78 | 1005.8 |
| 20260506013043 | 26 | 148 | 3.2 | 0.0 | 0.00 | 0.00 | 0.00 | 78 | 1005.8 |
| 20260506012516 | 26 | 148 | 4.8 | 0.0 | 0.00 | 0.00 | 0.00 | 77 | 1005.7 |
| 20260506012102 | 26 | 137 | 4.8 | 0.0 | 0.00 | 0.00 | 0.00 | 77 | 1005.6 |
| 20260506011547 | 27 | 166 | 4.8 | 0.0 | 0.00 | 0.00 | 0.00 | 76 | 1005.6 |
| 20260506011020 | 27 | 167 | 4.8 | 0.0 | 0.00 | 0.00 | 0.00 | 76 | 1005.5 |
| 20260506010554 | 27 | 136 | 6.4 | 0.0 | 0.00 | 0.00 | 0.00 | 75 | 1005.6 |
| 20260506010054 | 27 | 136 | 6.4 | 0.0 | 0.00 | 0.00 | 0.00 | 74 | 1005.5 |
| 20260506005519 | 27 | 152 | 6.4 | 0.0 | 0.00 | 0.00 | 0.00 | 74 | 1005.5 |
| 20260506005101 | 27 | 134 | 8.0 | 0.0 | 0.00 | 0.00 | 0.00 | 73 | 1005.5 |
| 20260506004604 | 27 | 132 | 6.4 | 0.0 | 0.00 | 0.00 | 0.00 | 73 | 1005.5 |
| 20260506004037 | 27 | 148 | 6.4 | 0.0 | 0.00 | 0.00 | 0.00 | 73 | 1005.5 |
| 20260506003517 | 27 | 141 | 6.4 | 0.0 | 0.00 | 0.00 | 0.00 | 73 | 1005.6 |
| 20260506003023 | 27 | 152 | 6.4 | 0.0 | 0.00 | 0.00 | 0.00 | 72 | 1005.5 |
| 20260506002558 | 28 | 135 | 6.4 | 0.0 | 0.00 | 0.00 | 0.00 | 72 | 1005.5 |
| 20260506002034 | 28 | 151 | 6.4 | 0.0 | 0.00 | 0.00 | 0.00 | 72 | 1005.6 |
| 20260506001536 | 28 | 127 | 6.4 | 0.0 | 0.00 | 0.00 | 0.00 | 72 | 1005.6 |
| 20260506001009 | 28 | 142 | 6.4 | 0.0 | 0.00 | 0.00 | 0.00 | 72 | 1005.5 |
| 20260506000547 | 28 | 146 | 8.0 | 0.0 | 0.00 | 0.00 | 0.00 | 72 | 1005.6 |
| 20260506000054 | 28 | 152 | 6.4 | 0.0 | 0.00 | 0.00 | 0.00 | 71 | 1005.6 |
| 20260505235523 | 28 | 136 | 6.4 | 0.0 | 0.00 | 0.00 | 0.00 | 71 | 1005.7 |
| 20260505235102 | 28 | 133 | 6.4 | 0.0 | 0.00 | 0.00 | 0.00 | 71 | 1005.6 |
| 20260505234502 | 28 | 136 | 6.4 | 0.0 | 0.00 | 0.00 | 0.00 | 71 | 1005.6 |
| 20260505234040 | 28 | 136 | 8.0 | 0.0 | 0.00 | 0.00 | 0.00 | 70 | 1005.6 |
| 20260505233510 | 28 | 148 | 8.0 | 0.0 | 0.00 | 0.00 | 0.00 | 70 | 1005.5 |
| 20260505233015 | 28 | 151 | 9.7 | 0.0 | 0.00 | 0.00 | 0.00 | 70 | 1005.5 |
| 20260505232550 | 28 | 135 | 9.7 | 0.0 | 0.00 | 0.00 | 0.00 | 69 | 1005.4 |
| 20260505232029 | 28 | 165 | 8.0 | 0.0 | 0.00 | 0.00 | 0.00 | 69 | 1005.2 |
| 20260505231532 | 28 | 172 | 6.4 | 0.0 | 0.00 | 0.00 | 0.00 | 69 | 1005.2 |
| 20260505231005 | 28 | 152 | 8.0 | 0.0 | 0.00 | 0.00 | 0.00 | 68 | 1005.2 |
| 20260505230543 | 28 | 140 | 9.7 | 0.0 | 0.00 | 0.00 | 0.00 | 68 | 1005.2 |
| 20260505230040 | 28 | 194 | 9.7 | 0.0 | 0.00 | 0.00 | 0.00 | 68 | 1005.1 |
| 20260505225510 | 28 | 138 | 9.7 | 0.0 | 0.00 | 0.00 | 0.00 | 68 | 1005.0 |
| 20260505225049 | 28 | 140 | 9.7 | 0.0 | 0.00 | 0.00 | 0.00 | 69 | 1005.0 |
| 20260505224555 | 28 | 145 | 11.3 | 0.0 | 0.00 | 0.00 | 0.00 | 69 | 1004.9 |
| 20260505224028 | 28 | 121 | 9.7 | 0.0 | 0.00 | 0.00 | 0.00 | 68 | 1005.0 |
| 20260505223503 | 28 | 130 | 8.0 | 0.0 | 0.00 | 0.00 | 0.00 | 69 | 1005.1 |
| 20260505223005 | 28 | 147 | 8.0 | 0.0 | 0.00 | 0.00 | 0.00 | 69 | 1005.2 |
| 20260505222541 | 28 | 144 | 8.0 | 0.0 | 0.00 | 0.00 | 0.00 | 68 | 1005.1 |
| 20260505222012 | 28 | 157 | 9.7 | 0.0 | 0.00 | 0.00 | 0.00 | 68 | 1005.0 |
| 20260505221603 | 28 | 129 | 9.7 | 0.0 | 0.00 | 0.00 | 0.00 | 68 | 1004.9 |
| 20260505221035 | 29 | 128 | 6.4 | 0.0 | 0.00 | 0.00 | 0.00 | 68 | 1004.9 |
| 20260505220514 | 29 | 140 | 9.7 | 0.0 | 0.00 | 0.00 | 0.00 | 68 | 1005.0 |
| 20260505220019 | 28 | 142 | 12.9 | 0.0 | 0.00 | 0.00 | 0.00 | 69 | 1005.1 |
| 20260505215557 | 29 | 140 | 11.3 | 0.0 | 0.00 | 0.00 | 0.00 | 67 | 1005.1 |
| 20260505215027 | 29 | 137 | 9.7 | 0.0 | 0.00 | 0.00 | 0.00 | 68 | 1005.2 |
| 20260505214529 | 29 | 141 | 9.7 | 0.0 | 0.00 | 0.00 | 0.00 | 68 | 1005.2 |
| 20260505214003 | 29 | 130 | 9.7 | 0.0 | 0.00 | 0.00 | 0.00 | 68 | 1005.2 |
| 20260505213543 | 29 | 166 | 8.0 | 0.0 | 0.00 | 0.00 | 0.00 | 67 | 1005.2 |
| 20260505213036 | 29 | 151 | 9.7 | 0.0 | 0.00 | 0.00 | 0.00 | 68 | 1005.3 |
| 20260505212513 | 29 | 142 | 9.7 | 0.0 | 0.00 | 0.00 | 0.00 | 67 | 1005.5 |
| 20260505212048 | 30 | 120 | 9.7 | 0.0 | 0.00 | 0.00 | 0.00 | 68 | 1005.5 |
| 20260505211554 | 29 | 144 | 11.3 | 0.0 | 0.00 | 0.00 | 0.00 | 68 | 1005.5 |
| 20260505211025 | 29 | 135 | 9.7 | 0.0 | 0.00 | 0.00 | 0.00 | 68 | 1005.6 |
| 20260505210603 | 29 | 141 | 9.7 | 0.0 | 0.00 | 0.00 | 0.00 | 68 | 1005.6 |
| 20260505210006 | 29 | 146 | 11.3 | 0.0 | 0.00 | 0.00 | 0.00 | 68 | 1005.8 |
| 20260505205547 | 29 | 144 | 11.3 | 0.0 | 0.00 | 0.00 | 0.00 | 69 | 1005.8 |
| 20260505205016 | 29 | 140 | 9.7 | 0.0 | 0.00 | 0.00 | 0.00 | 68 | 1005.8 |
| 20260505204522 | 29 | 150 | 9.7 | 0.0 | 0.00 | 0.00 | 0.00 | 68 | 1005.9 |
| 20260505204058 | 29 | 131 | 9.7 | 0.0 | 0.00 | 0.00 | 0.00 | 70 | 1005.9 |
| 20260505203532 | 29 | 180 | 9.7 | 0.0 | 0.00 | 0.00 | 0.00 | 68 | 1005.8 |
| 20260505203037 | 30 | 133 | 8.0 | 0.0 | 0.00 | 0.00 | 0.00 | 66 | 1006.1 |
| 20260505202512 | 30 | 148 | 6.4 | 0.0 | 0.00 | 0.00 | 0.00 | 66 | 1006.1 |
| 20260505202048 | 30 | 134 | 6.4 | 0.0 | 0.00 | 0.00 | 0.00 | 67 | 1006.1 |
| 20260505201556 | 30 | 126 | 6.4 | 0.0 | 0.00 | 0.00 | 0.00 | 66 | 1006.3 |
| 20260505201021 | 29 | 207 | 4.8 | 0.0 | 0.00 | 0.00 | 0.00 | 66 | 1006.5 |
| 20260505200557 | 29 | 246 | 4.8 | 0.0 | 0.00 | 0.00 | 0.00 | 67 | 1006.5 |
| 20260505200059 | 28 | 213 | 6.4 | 0.0 | 0.00 | 0.00 | 0.00 | 68 | 1006.5 |